Skip Page Navigation
NASA JPL Caltech
NASA Logo - Jet Propulsion Laboratory + View the NASA Portal
+ Center for Near-Earth Object Studies
JPL Home Earth Solar System Stars & Galaxies Technology
JPL Solar System Dynamics
BODIES ORBITS EPHEMERIDES TOOLS PHYSICAL DATA DISCOVERY FAQ SITE MAP
JPL Small-Body Database Browser
Search: [ help ]  
351730 (2006 CV45)
Classification: Main-belt Asteroid          SPK-ID: 2351730
Ephemeris | Orbit Diagram | Orbital Elements | Mission Design | Physical Parameters | Discovery Circumstances | Close-Approach Data ]

[ show orbit diagram ]
Orbital Elements at Epoch 2459000.5 (2020-May-31.0) TDB
Reference: JPL 5 (heliocentric ecliptic J2000)
 Element Value Uncertainty (1-sigma)   Units 
e .05157424707974286 1.1375e-07  
a 2.326238543600538 3.2692e-08 au
q 2.206264542186462 2.8819e-07 au
i 5.498193150646853 1.2168e-05 deg
node 329.597296426888 5.7641e-05 deg
peri 320.1763530393114 0.00014962 deg
M 217.5454451749297 0.00013133 deg
tp 2459513.306636449367
(2021-Oct-25.80663645)
0.00046599 TDB
period 1295.92479053034
3.55
2.7319e-05
7.48e-08
d
yr
n .2777938987128064 5.8561e-09 deg/d
Q 2.446212545014613 3.4378e-08 au
  Orbit Determination Parameters
   # obs. used (total)      95  
   data-arc span      4623 days (12.66 yr)  
   first obs. used      2006-02-03  
   last obs. used      2018-10-01  
   planetary ephem.      DE431  
   SB-pert. ephem.      SB431-N16  
   condition code      0  
   norm. resid. RMS      .6159  
   source      ORB  
   producer      Otto Matic  
   solution date      2019-Jul-14 12:23:13  

Additional Information
 Earth MOID = 1.19339 au 
 Jupiter MOID = 2.64403 au 
 T_jup = 3.566 
[ show covariance matrix ]

Ephemeris | Orbit Diagram | Orbital Elements | Mission Design | Physical Parameters | Discovery Circumstances | Close-Approach Data ]

Physical Parameter Table
Parameter Symbol Value Units Sigma Reference Notes
absolute magnitude H 17.8   n/a MPO455546  

351730 (2006 CV45)          Discovered 2006-Feb-03 by Spacewatch at Kitt Peak
Reference: 20130127/Numbers.arcLast Updated: 2013-01-31

[ show close-approach data ]
Ephemeris | Orbit Diagram | Orbital Elements | Mission Design | Physical Parameters | Discovery Circumstances | Close-Approach Data ]
ABOUT SSD CREDITS/AWARDS PRIVACY/COPYRIGHT GLOSSARY LINKS
FirstGov 2020-Jul-07 04:19 UT
(server date/time)  
NASA Home Page
Site Manager:   Ryan S. Park
Webmaster  Alan B. Chamberlin